Retour au catalogue

STARLINK-34681

ActifCommunicationsVLEO
NORAD 66438·PAYLOAD·🇺🇸 United States

Lancé Nov 11, 2025 depuis Cape Canaveral Space Force Station

Loading…

Prochains Passages (prochaines 24 heures)

TLE

FraisSource: CelesTrak SupGP

Époque: Sep 14, 2026, 23:17 UTC

1 66438C 25259S   26257.97062500  .00028021  00000+0  10147-2 0  2575
2 66438  43.0024 285.4533 0001742 272.0875 265.4877 15.27569551    13

Suivez STARLINK-34681 en temps réel avec AllMySat

Download on the App Store